This is the latest recevied weather packets stored in our database for station/object VE6KEE-13. If no packets are shown the sender has not sent any weather packets the latest 10 day(s).
| Time | Temp. | Humidity | Pressure | Rain* | Wind** | Luminosity | Snow |
|---|---|---|---|---|---|---|---|
| 1777777359 | 16.67° C | 28% | 1016.4 hPa | 0 mm | - | - | - |
| 1777776459 | 17.22° C | 27% | 1016.3 hPa | 0 mm | - | - | - |
| 1777775564 | 17.78° C | 26% | 1016.3 hPa | 0 mm | - | - | - |
| 1777774659 | 17.78° C | 25% | 1016.4 hPa | 0 mm | - | - | - |
| 1777773759 | 18.33° C | 24% | 1016.3 hPa | 0 mm | - | - | - |
| 1777772855 | 18.89° C | 24% | 1016.3 hPa | 0 mm | - | - | - |
| 1777771954 | 18.89° C | 23% | 1016.4 hPa | 0 mm | - | - | - |
| 1777771054 | 19.44° C | 23% | 1016.7 hPa | 0 mm | - | - | - |
| 1777770159 | 19.44° C | 22% | 1016.7 hPa | 0 mm | - | - | - |
| 1777769252 | 20° C | 22% | 1016.8 hPa | 0 mm | - | - | - |
| 1777768354 | 20° C | 22% | 1017 hPa | 0 mm | - | - | - |
| 1777767450 | 20.56° C | 21% | 1016.9 hPa | 0 mm | - | - | - |
| 1777766553 | 21.11° C | 20% | 1017.1 hPa | 0 mm | - | - | - |
| 1777765648 | 21.67° C | 20% | 1017.1 hPa | 0 mm | - | - | - |
| 1777764753 | 22.22° C | 19% | 1017.4 hPa | 0 mm | - | - | - |
| 1777763847 | 22.78° C | 19% | 1017.4 hPa | 0 mm | - | - | - |
| 1777762948 | 22.78° C | 18% | 1017.5 hPa | 0 mm | - | - | - |
| 1777762046 | 23.33° C | 18% | 1017.6 hPa | 0 mm | - | - | - |
| 1777761145 | 23.89° C | 17% | 1017.7 hPa | 0 mm | - | - | - |
| 1777760248 | 24.44° C | 17% | 1017.9 hPa | 0 mm | - | - | - |
| 1777759348 | 24.44° C | 18% | 1018.1 hPa | 0 mm | - | - | - |
| 1777758443 | 24.44° C | 18% | 1018.2 hPa | 0 mm | - | - | - |
| 1777757543 | 24.44° C | 17% | 1018.6 hPa | 0 mm | - | - | - |
| 1777756641 | 24.44° C | 18% | 1018.7 hPa | 0 mm | - | - | - |
| 1777755741 | 23.89° C | 18% | 1018.8 hPa | 0 mm | - | - | - |
* Rain since midnight (hover to see other rain measurements)
** Current wind speed in m/s (hover to see current wind gust speed)